This is the latest recevied weather packets stored in our database for station/object K8RLH. If no packets are shown the sender has not sent any weather packets the latest 10 day(s).
| Time | Temp. | Humidity | Pressure | Rain* | Wind** | Luminosity | Snow |
|---|---|---|---|---|---|---|---|
| 1778079739 | 20.56° C | 74% | 1017.3 hPa | 0 mm | - | 175 W/m² | - |
| 1778079436 | 20.56° C | 74% | 1017.3 hPa | 0 mm | - | 176 W/m² | - |
| 1778079133 | 20° C | 74% | 1017.2 hPa | 0 mm | - | 147 W/m² | - |
| 1778078830 | 20° C | 74% | 1017.2 hPa | 0 mm | - | 83 W/m² | - |
| 1778078527 | 20° C | 75% | 1017.2 hPa | 0 mm | - | 130 W/m² | - |
| 1778078224 | 20° C | 76% | 1016.9 hPa | 0 mm | - | 133 W/m² | - |
| 1778077922 | 20° C | 76% | 1016.7 hPa | 0 mm | - | 98 W/m² | - |
| 1778077621 | 20° C | 75% | 1016.8 hPa | 0 mm | - | 64 W/m² | - |
| 1778077318 | 20° C | 75% | 1016.7 hPa | 0 mm | - | 56 W/m² | - |
| 1778077015 | 20° C | 75% | 1016.6 hPa | 0 mm | - | 120 W/m² | - |
| 1778076714 | 20° C | 76% | 1016.6 hPa | 0 mm | - | 150 W/m² | - |
| 1778076411 | 19.44° C | 76% | 1016.7 hPa | 0 mm | - | 148 W/m² | - |
| 1778076108 | 19.44° C | 76% | 1016.6 hPa | 0 mm | - | 126 W/m² | - |
| 1778075805 | 19.44° C | 77% | 1016.8 hPa | 0 mm | - | 107 W/m² | - |
| 1778075501 | 18.89° C | 77% | 1016.6 hPa | 0 mm | - | 97 W/m² | - |
| 1778075198 | 18.89° C | 78% | 1016.7 hPa | 0 mm | - | 91 W/m² | - |
| 1778074893 | 18.89° C | 78% | 1016.7 hPa | 0 mm | - | 104 W/m² | - |
| 1778074591 | 18.89° C | 78% | 1016.8 hPa | 0 mm | - | 76 W/m² | - |
| 1778074288 | 18.33° C | 78% | 1016.7 hPa | 0 mm | - | 101 W/m² | - |
| 1778073985 | 18.33° C | 79% | 1016.7 hPa | 0 mm | - | 140 W/m² | - |
| 1778073682 | 18.33° C | 78% | 1016.6 hPa | 0 mm | - | 57 W/m² | - |
| 1778073380 | 18.33° C | 77% | 1017 hPa | 0 mm | - | 42 W/m² | - |
| 1778073075 | 18.33° C | 77% | 1016.8 hPa | 0 mm | - | 60 W/m² | - |
| 1778072773 | 18.33° C | 76% | 1017.1 hPa | 0 mm | - | 38 W/m² | - |
| 1778072470 | 18.33° C | 76% | 1017.2 hPa | 0 mm | - | 40 W/m² | - |
* Rain latest hour (hover to see other rain measurements)
** Current wind speed in m/s (hover to see current wind gust speed)